Back to catalog

THORAD AGENA D DEB

AliveLEO
NORAD 20360·DEBRIS·🇺🇸 United States

Launched Apr 8, 1970 from Vandenberg Space Force Base

Loading…

Next Passes (next 24 hours)

TLE

FreshSource: Space-Track

Epoch: Sep 13, 2026, 10:02 UTC

1 20360U 70025QF  26256.41805985  .00006119  00000-0  29470-2 0  9997
2 20360 100.4150 229.4858 0029364 356.5852 156.8076 14.18951474844991

Track THORAD AGENA D DEB in real time with AllMySat

Download on the App Store